This demonstration page uses our WeatherBlox Daily Observations layout. Learn more.

Left ArrowRight Arrow

Hourly Observations for December 18, 2015

Temp ( °F °C ) Dew Point ( °F °C ) Humidity (%) Winds ( mph kmh ) Pressure ( in mb ) Visibility ( mi km ) Precip ( " mm )
12:53 am 00:53 Cloudy 33 0.6 22 -5.6 64 64 NW 8 13 30.02 1017 10 16 N/A
1:53 am 01:53 Cloudy 32 undefined 21 -6.1 64 64 NW 7 11 30.01 1016 10 16 N/A
2:53 am 02:53 Cloudy 32 undefined 22 -5.6 66 66 WNW 9 15 30.03 1017 10 16 N/A
3:53 am 03:53 Cloudy 32 undefined 21 -6.1 64 64 W 8 13 30.03 1017 10 16 N/A
4:53 am 04:53 Cloudy 32 undefined 21 -6.1 64 64 WSW 6 9 30.02 1017 10 16 N/A
5:53 am 05:53 Cloudy 32 undefined 20 -6.7 61 61 WNW 12 19 30.03 1017 10 16 N/A
6:17 am 06:17 Cloudy 31 -0.6 20 -6.7 64 64 W 5 7 30.09 1019 10 16 N/A
6:53 am 06:53 Cloudy 31 -0.6 21 -6.1 67 67 W 5 7 30.04 1017 10 16 N/A
7:53 am 07:53 Cloudy 32 undefined 21 -6.1 64 64 W 6 9 30.04 1017 10 16 N/A
8:53 am 08:53 Cloudy 32 undefined 21 -6.1 64 64 W 7 11 30.06 1018 10 16 N/A
9:53 am 09:53 Cloudy 33 0.6 22 -5.6 64 64 WSW 6 9 30.07 1018 10 16 N/A
10:53 am 10:53 Mostly Cloudy 35 1.7 20 -6.7 54 54 W 9 15 30.07 1018 10 16 N/A
11:53 am 11:53 Mostly Cloudy 36 2.2 19 -7.2 50 50 W 9 15 30.06 1018 10 16 N/A
12:53 pm 12:53 Cloudy 37 2.8 20 -6.7 50 50 W 12 19 30.05 1018 10 16 N/A
1:53 pm 13:53 Cloudy 36 2.2 20 -6.7 52 52 W 20 31 30.04 1017 10 16 N/A
2:53 pm 14:53 Cloudy 35 1.7 19 -7.2 52 52 W 14 22 30.06 1018 10 16 N/A
3:53 pm 15:53 Partly Cloudy 34 1.1 11 -11.7 38 38 W 18 30 30.10 1019 10 16 N/A
4:53 pm 16:53 Partly Cloudy 33 0.6 12 -11.1 42 42 W 15 24 30.14 1021 10 16 N/A
5:53 pm 17:53 Clear 31 -0.6 14 -10 49 49 W 8 13 30.16 1021 10 16 N/A
6:53 pm 18:53 Clear 30 -1.1 15 -9.4 54 54 WSW 6 9 30.17 1022 10 16 N/A
7:53 pm 19:53 Cloudy 30 -1.1 15 -9.4 54 54 SW 6 9 30.19 1022 10 16 N/A
8:53 pm 20:53 Cloudy 31 -0.6 14 -10 49 49 VRB 6 9 30.20 1023 10 16 N/A
9:53 pm 21:53 Cloudy 32 undefined 14 -10 47 47 SW 9 15 30.20 1023 10 16 N/A
10:53 pm 22:53 Cloudy 32 undefined 15 -9.4 50 50 WSW 7 11 30.19 1022 10 16 N/A
11:53 pm 23:53 Mostly Cloudy 32 undefined 11 -11.7 41 41 WSW 14 22 30.20 1023 10 16 N/A

Powered by AerisWeather